Mexicali, Mexico

3:08 PM PST on December 12, 2017 (GMT -0800)
Gen Rodolfo Sanchez Taboada

Weather History for MMML - July, 2012

Change the Weather History Date:

Saturday, July 21, 2012

  Actual Average Record
Temperature  
Mean Temperature 94 °F -  
Max Temperature 105 °F 103 °F 116 °F (2006)
Min Temperature 82 °F 77 °F 73 °F (2002)
Cooling Degree Days 28    
Growing Degree Days 44 (Base 50)    
Moisture  
Dew Point 66 °F    
Average Humidity 40    
Maximum Humidity 66    
Minimum Humidity 22    
Precipitation  
Precipitation 0.00 in - - ()
Sea Level Pressure  
Sea Level Pressure 29.79 in    
Wind  
Wind Speed 8 mph ()    
Max Wind Speed 16 mph    
Max Gust Speed -    
Visibility 10.0 miles    
Events      
Averages and records for this station are not official NWS values.
T = Trace of Precipitation, MM = Missing Value Source: Averaged Metar Reports

Daily Weather History Graph

Daily Weather History Graph

Search for Another Location

Airport or City:

Trip Planner

Search our weather history database for the weather conditions in past years. The results will help you decide how hot, cold, wet, or windy it might be!

Date:

Astronomy

Jul. 21, 2012 Rise Set
Actual Time 5:48 AM PDT 7:46 PM PDT
Civil Twilight 5:20 AM PDT 8:13 PM PDT
Nautical Twilight 4:47 AM PDT 8:47 PM PDT
Astronomical Twilight 4:11 AM PDT 9:22 PM PDT
Moon 8:21 AM PDT (7/21) 9:14 PM PDT (7/21)
Length of Visible Light 14h 53m
Length of Day
13h 58m
Waxing Crescent, 7% of the Moon is Illuminated
Jul 21
Waxing Crescent
Jul 26
First Quarter
Aug 1
Full
Aug 9
Last Quarter
Aug 17
New

Hourly Weather History & Observations

Time (PDT) Temp. Heat Index Dew Point Humidity Pressure Visibility Wind Dir Wind Speed Gust Speed Precip Events Conditions
12:51 AM 89.6 °F 89.5 °F 60.8 °F 38% 29.80 in 10.0 mi East 5.8 mph - N/A   Clear
5:50 AM 82.4 °F 86.3 °F 69.8 °F 66% 29.83 in 10.0 mi East 8.1 mph - N/A   Scattered Clouds
6:49 AM 84.2 °F 89.6 °F 71.6 °F 66% 29.84 in 10.0 mi ESE 11.5 mph - N/A   Partly Cloudy
7:49 AM 87.8 °F 95.6 °F 73.4 °F 62% 29.90 in 10.0 mi SE 11.5 mph - N/A   Scattered Clouds
8:53 AM 89.6 °F 99.8 °F 75.2 °F 62% 29.87 in 10.0 mi SE 6.9 mph - N/A   Scattered Clouds
9:53 AM 93.2 °F 102.4 °F 73.4 °F 52% 29.87 in 10.0 mi SSE 11.5 mph - N/A   Scattered Clouds
11:52 AM 100.4 °F 103.6 °F 64.4 °F 31% 29.85 in 10.0 mi SE 10.4 mph - N/A   Clear
12:53 PM 102.2 °F 104.2 °F 62.6 °F 27% 29.83 in 10.0 mi SSE 9.2 mph - N/A   Clear
1:43 PM 102.2 °F 104.2 °F 62.6 °F 27% 29.85 in 10.0 mi SSE 5.8 mph - N/A   Clear
2:42 PM 104.0 °F 105.3 °F 60.8 °F 24% 29.78 in 10.0 mi SE 11.5 mph - N/A   Clear
3:55 PM 104.0 °F 105.3 °F 60.8 °F 24% 29.74 in 10.0 mi East 5.8 mph - N/A   Clear
4:57 PM 105.8 °F 106.8 °F 59.0 °F 22% 29.74 in 10.0 mi East 6.9 mph - N/A   Clear
5:47 PM 104.0 °F 105.3 °F 60.8 °F 24% 29.70 in 10.0 mi NNE 6.9 mph - N/A   Clear
6:55 PM 104.0 °F 105.3 °F 60.8 °F 24% 29.71 in 10.0 mi SE 11.5 mph - N/A   Clear
7:54 PM 96.8 °F 99.0 °F 64.4 °F 34% 29.75 in 10.0 mi SSE 9.2 mph - N/A   Clear
8:54 PM 93.2 °F 94.9 °F 64.4 °F 38% 29.72 in 10.0 mi SE 9.2 mph - N/A   Clear
9:47 PM 93.2 °F 94.9 °F 64.4 °F 38% 29.76 in 10.0 mi SSE 5.8 mph - N/A   Clear
10:49 PM 91.4 °F 98.4 °F 71.6 °F 52% 29.76 in 10.0 mi SE 5.8 mph - N/A   Scattered Clouds
11:49 PM 89.6 °F 96.2 °F 71.6 °F 55% 29.80 in 10.0 mi ESE 16.1 mph - N/A   Scattered Clouds